Meteo pe oră la Dabynivka

Astăzi, 12 Aprilie, Luni

Timp Temperatura Precipitaţii Vânt Presiune Umiditate
00:00 +8°C° 0 mm 3 m/s 760 mmHg 59%
01:00 +8°C° 0 mm 3 m/s 760 mmHg 61%
02:00 +6°C° 0 mm 4 m/s 760 mmHg 62%
03:00 +7°C° 0 mm 4 m/s 759 mmHg 63%
04:00 +7°C° 0 mm 4 m/s 759 mmHg 64%
05:00 +7°C° 0 mm 4 m/s 759 mmHg 65%
06:00 +7°C° 0 mm 4 m/s 759 mmHg 66%
07:00 +8°C° 0 mm 4 m/s 758 mmHg 67%
08:00 +8°C° 0 mm 4 m/s 758 mmHg 68%
09:00 +11°C° 0 mm 3 m/s 758 mmHg 67%
10:00 +12°C° 0 mm 3 m/s 758 mmHg 65%
11:00 +14°C° 0 mm 3 m/s 758 mmHg 63%
12:00 +16°C° 0 mm 3 m/s 757 mmHg 62%
13:00 +16°C° 0 mm 3 m/s 757 mmHg 60%
14:00 +17°C° 0 mm 2 m/s 757 mmHg 59%
15:00 +18°C° 0 mm 3 m/s 756 mmHg 56%
16:00 +18°C° 0 mm 3 m/s 756 mmHg 59%
17:00 +17°C° 0 mm 2 m/s 756 mmHg 62%
18:00 +16°C° 0 mm 3 m/s 756 mmHg 64%
19:00 +16°C° 0 mm 3 m/s 756 mmHg 66%
20:00 +14°C° 0 mm 3 m/s 756 mmHg 68%
21:00 +14°C° 0 mm 4 m/s 756 mmHg 72%
22:00 +13°C° 0 mm 4 m/s 756 mmHg 76%
23:00 +12°C° 0 mm 5 m/s 756 mmHg 81%

Mâine, 13 Aprilie, Marţi

Timp Temperatura Precipitaţii Vânt Presiune Umiditate
00:00 +10°C° 0 mm 5 m/s 756 mmHg 83%
01:00 +10°C° 0 mm 5 m/s 756 mmHg 85%
02:00 +11°C° 0 mm 4 m/s 757 mmHg 87%
03:00 +10°C° 0 mm 4 m/s 757 mmHg 88%
04:00 +10°C° 0 mm 4 m/s 757 mmHg 89%
05:00 +9°C° 0 mm 3 m/s 757 mmHg 90%
06:00 +10°C° 0 mm 3 m/s 757 mmHg 88%
07:00 +10°C° 0 mm 3 m/s 757 mmHg 85%
08:00 +10°C° 0 mm 4 m/s 757 mmHg 83%
09:00 +12°C° 0 mm 4 m/s 757 mmHg 77%
10:00 +13°C° 0 mm 4 m/s 757 mmHg 72%
11:00 +14°C° 0 mm 4 m/s 757 mmHg 67%
12:00 +14°C° 0 mm 4 m/s 757 mmHg 65%
13:00 +14°C° 0 mm 4 m/s 757 mmHg 63%
14:00 +14°C° 0 mm 4 m/s 757 mmHg 61%
15:00 +14°C° 0 mm 3 m/s 757 mmHg 63%
16:00 +14°C° 0 mm 3 m/s 756 mmHg 65%
17:00 +15°C° 0 mm 2 m/s 756 mmHg 66%
18:00 +14°C° 0 mm 2 m/s 756 mmHg 69%
19:00 +14°C° 0 mm 2 m/s 757 mmHg 72%
20:00 +13°C° 0 mm 2 m/s 757 mmHg 75%
21:00 +13°C° 0 mm 2 m/s 756 mmHg 76%
22:00 +13°C° 0 mm 2 m/s 756 mmHg 77%
23:00 +12°C° 0 mm 2 m/s 756 mmHg 79%

Poimâine, 14 Aprilie, Miercuri

Timp Temperatura Precipitaţii Vânt Presiune Umiditate
00:00 +12°C° 0 mm 2 m/s 756 mmHg 80%
01:00 +10°C° 0 mm 2 m/s 756 mmHg 82%
02:00 +10°C° 0 mm 2 m/s 756 mmHg 83%
03:00 +9°C° 0 mm 2 m/s 756 mmHg 85%
04:00 +9°C° 0 mm 2 m/s 756 mmHg 87%
05:00 +8°C° 0 mm 2 m/s 755 mmHg 89%
06:00 +9°C° 0 mm 3 m/s 755 mmHg 85%
07:00 +10°C° 0 mm 3 m/s 755 mmHg 80%
08:00 +11°C° 0 mm 3 m/s 755 mmHg 75%
09:00 +12°C° 0 mm 3 m/s 755 mmHg 71%
10:00 +13°C° 0 mm 3 m/s 755 mmHg 66%
11:00 +14°C° 0 mm 3 m/s 755 mmHg 62%
12:00 +14°C° 0 mm 3 m/s 754 mmHg 58%
13:00 +15°C° 0 mm 4 m/s 754 mmHg 54%
14:00 +15°C° 0 mm 4 m/s 754 mmHg 49%
15:00 +16°C° 0 mm 3 m/s 754 mmHg 52%
16:00 +14°C° 0 mm 3 m/s 754 mmHg 54%
17:00 +15°C° 0 mm 2 m/s 753 mmHg 56%
18:00 +14°C° 0 mm 2 m/s 754 mmHg 58%
19:00 +14°C° 0 mm 1 m/s 754 mmHg 60%
20:00 +13°C° 0 mm 1 m/s 754 mmHg 62%
21:00 +12°C° 0 mm 1 m/s 754 mmHg 65%
22:00 +12°C° 0 mm 1 m/s 753 mmHg 68%
23:00 +10°C° 0 mm 2 m/s 753 mmHg 70%

15 Aprilie, Joi

Timp Temperatura Precipitaţii Vânt Presiune Umiditate
00:00 +10°C° 0 mm 2 m/s 753 mmHg 72%
01:00 +10°C° 0 mm 2 m/s 753 mmHg 75%
02:00 +9°C° 0 mm 2 m/s 753 mmHg 77%
03:00 +9°C° 0 mm 2 m/s 753 mmHg 79%
04:00 +10°C° 0 mm 1 m/s 753 mmHg 80%
05:00 +9°C° 0 mm 1 m/s 753 mmHg 82%
06:00 +10°C° 0 mm 2 m/s 753 mmHg 77%
07:00 +12°C° 0 mm 2 m/s 753 mmHg 72%
08:00 +13°C° 0 mm 2 m/s 753 mmHg 68%
09:00 +14°C° 0 mm 2 m/s 753 mmHg 62%
10:00 +16°C° 0 mm 3 m/s 752 mmHg 57%
11:00 +17°C° 0 mm 3 m/s 752 mmHg 52%
12:00 +17°C° 0 mm 3 m/s 752 mmHg 49%
13:00 +18°C° 0 mm 3 m/s 751 mmHg 47%
14:00 +18°C° 0 mm 3 m/s 751 mmHg 44%
15:00 +18°C° 0 mm 2 m/s 751 mmHg 47%
16:00 +17°C° 0 mm 2 m/s 751 mmHg 49%
17:00 +18°C° 0 mm 1 m/s 750 mmHg 51%
18:00 +16°C° 0 mm 2 m/s 750 mmHg 57%
19:00 +15°C° 0 mm 2 m/s 750 mmHg 63%
20:00 +12°C° 0 mm 3 m/s 750 mmHg 70%
21:00 +12°C° 0.4 mm 3 m/s 750 mmHg 76%
22:00 +12°C° 0.4 mm 2 m/s 750 mmHg 83%
23:00 +12°C° 0.4 mm 2 m/s 750 mmHg 89%

16 Aprilie, Vineri

Timp Temperatura Precipitaţii Vânt Presiune Umiditate
00:00 +10°C° 0.6 mm 2 m/s 750 mmHg 89%
01:00 +10°C° 0.6 mm 2 m/s 749 mmHg 89%
02:00 +10°C° 0.6 mm 3 m/s 749 mmHg 88%
03:00 +10°C° 0.1 mm 3 m/s 749 mmHg 89%
04:00 +9°C° 0.1 mm 3 m/s 749 mmHg 90%
05:00 +8°C° 0.1 mm 4 m/s 749 mmHg 91%
06:00 +8°C° 0.1 mm 4 m/s 749 mmHg 88%
07:00 +10°C° 0.1 mm 3 m/s 749 mmHg 86%
08:00 +10°C° 0.1 mm 3 m/s 750 mmHg 84%
09:00 +10°C° 0.2 mm 4 m/s 750 mmHg 83%
10:00 +10°C° 0.2 mm 4 m/s 750 mmHg 83%
11:00 +8°C° 0.2 mm 4 m/s 750 mmHg 82%
12:00 +9°C° 0 mm 5 m/s 750 mmHg 79%
13:00 +9°C° 0 mm 5 m/s 751 mmHg 76%
14:00 +10°C° 0 mm 6 m/s 751 mmHg 73%
15:00 +9°C° 0 mm 5 m/s 751 mmHg 73%
16:00 +9°C° 0 mm 5 m/s 751 mmHg 74%
17:00 +10°C° 0 mm 4 m/s 752 mmHg 74%
18:00 +9°C° 0 mm 3 m/s 752 mmHg 77%
19:00 +9°C° 0 mm 3 m/s 753 mmHg 80%
20:00 +9°C° 0 mm 2 m/s 753 mmHg 83%
21:00 +9°C° 0.1 mm 2 m/s 753 mmHg 84%
22:00 +8°C° 0.1 mm 2 m/s 754 mmHg 85%
23:00 +8°C° 0.1 mm 2 m/s 754 mmHg 86%

17 Aprilie, Sâmbătă

Timp Temperatura Precipitaţii Vânt Presiune Umiditate
00:00 +8°C° 0 mm 2 m/s 754 mmHg 86%
01:00 +8°C° 0 mm 2 m/s 754 mmHg 86%
02:00 +8°C° 0 mm 2 m/s 755 mmHg 87%
03:00 +8°C° 0.1 mm 2 m/s 755 mmHg 86%
04:00 +8°C° 0.1 mm 2 m/s 755 mmHg 86%
05:00 +9°C° 0.1 mm 1 m/s 755 mmHg 85%
06:00 +9°C° 0.2 mm 2 m/s 756 mmHg 80%
07:00 +10°C° 0.2 mm 3 m/s 756 mmHg 75%
08:00 +11°C° 0.2 mm 4 m/s 756 mmHg 69%
09:00 +11°C° 0.1 mm 4 m/s 756 mmHg 67%
10:00 +12°C° 0.1 mm 5 m/s 757 mmHg 65%
11:00 +12°C° 0.1 mm 5 m/s 757 mmHg 63%
12:00 +12°C° 0.1 mm 5 m/s 757 mmHg 64%
13:00 +12°C° 0.1 mm 5 m/s 757 mmHg 65%
14:00 +11°C° 0.1 mm 6 m/s 757 mmHg 67%
15:00 +10°C° 0 mm 6 m/s 757 mmHg 71%
16:00 +10°C° 0 mm 6 m/s 758 mmHg 74%
17:00 +9°C° 0 mm 6 m/s 758 mmHg 78%
18:00 +8°C° 0.4 mm 6 m/s 758 mmHg 82%
19:00 +7°C° 0.4 mm 6 m/s 758 mmHg 86%
20:00 +5°C° 0.4 mm 6 m/s 758 mmHg 90%
21:00 +6°C° 0.6 mm 5 m/s 759 mmHg 89%
22:00 +6°C° 0.6 mm 5 m/s 759 mmHg 88%
23:00 +6°C° 0.6 mm 5 m/s 759 mmHg 87%
Arată mai mult

Formular de consimțământ

Meteoprog și furnizorii noștri de servicii pot stoca și accesa date personale, precum cookies, identificatori de dispozitiv sau alte tehnologii similare pe dispozitivul dumneavoastră și procesa astfel de date pentru a personaliza conținutul și reclamele, dar și pentru a oferi caracteristici de social media și pentru a analiza traficul.

  • Stocarea și/sau accesarea informațiilor pe dispozitivul dumneavoastră

    Cookies, identificatori de dispozitiv sau alte informații pot fi stocate sau accesate pe dispozitiv în scopurile indicate mai sus.

  • Reclame și conținut personalizat, evaluarea reclamelor și a conținutului, informații despre audiențe și dezvoltarea produselor

    Reclamele și conținutul pot fi personalizate pe baza unui profil. Pot fi adăugate date suplimentare pentru a personaliza mai bine reclamele și conținutul. Performanța reclamelor și conținutului poate fi măsurată. Pot fi obținute informații despre utilizatorii care au văzut reclamele și conținutul. Aceste date pot fi utilizate pentru a dezvolta sau îmbunătăți experiența utilizatorilor, sistemele și software-ul.

Dând clic pe ‘Sunt de acord’, permiteți utilizarea cookie-urilor menționate, a identificatorilor de dispozitiv, balizelor web sau altor tehnologii similare. Setările pot fi modificate din browser-ul dispozitivului dumneavoastră.

În anumite scopuri, interesele legitime pot prima asupra consimțământului. Puteți citi mai multe informații în acest sens în Politica privind Confidențialitatea Datelor și Cookie.